AirNav   Air Wisconsin Up To $57,000 Bonus
 
 953 users online  

KUYF Madison County Airport
London, Ohio, USA

GOING TO LONDON?


FAA INFORMATION EFFECTIVE 02 DECEMBER 2021

Location

FAA Identifier: UYF
Lat/Long: 39-55-57.8000N 083-27-43.2000W
39-55.963333N 083-27.720000W
39.9327222,-83.4620000
(estimated)
Elevation: 1081.6 ft. / 329.7 m (surveyed)
Variation: 06W (2000)
From city: 3 miles N of LONDON, OH
Time zone: UTC -5 (UTC -4 during Daylight Saving Time)
Zip code: 43140

Airport Operations

Airport use: Open to the public
Control tower: no
ARTCC: INDIANAPOLIS CENTER
FSS: DAYTON FLIGHT SERVICE STATION
NOTAMs facility: DAY (NOTAM-D service available)
Attendance: MON-FRI 0800-1600, ALL SAT-SUN 0900-1700
Wind indicator: lighted
Segmented circle: no
Lights: ACTVT REIL RWY 09 & 27; MIRL RWY 09/27 - CTAF. PAPI RWY 09 & 27 OPR CONSLY.
Beacon: white-green (lighted land airport)
Operates sunset to sunrise.

Airport Communications

CTAF/UNICOM: 123.0
WX AWOS-3PT: 120.85 (740-852-2844)
COLUMBUS APPROACH: 118.85
COLUMBUS DEPARTURE: 118.85
CLASS C: 118.85
IC: 118.85
WX AWOS-3 at TZR (15 nm E): 135.925 (614-878-1722)
WX AWOS-3 at I74 (18 nm NW): 118.325 (937-484-5863)
WX AWOS-3 at MRT (18 nm N): 119.275 (937-644-2967)
WX AWOS-3PT at SGH (18 nm W): 134.975 (937-324-4532)
WX ASOS at OSU (20 nm NE): 121.35 (614-451-2465)

Nearby radio navigation aids

VOR radial/distance  VOR name  Freq  Var
XUBr322/(33.0)YELLOW BUD VOR112.5005W
MXQr031/34.0MIDWEST VOR/DME112.9004W
RODr134/34.1ROSEWOOD VORTAC117.5005W

 
NDB name  Hdg/Dist  Freq  Var  ID
BOUTN305/13.723005WBU -... ..-
FULER240/14.851505WOS --- ...
COURT HOUSE357/20.241406WCSS -.-. ... ...

Airport Services

Fuel available: 100LL JET-A
100LL:FUEL AVBL H24 SELF SER.
Parking: hangars and tiedowns
Airframe service: MINOR
Powerplant service: MINOR
Bottled oxygen: NONE
Bulk oxygen: NONE

Runway Information

Runway 9/27

Dimensions: 4001 x 75 ft. / 1220 x 23 m
Surface: asphalt, in fair condition
Weight bearing capacity: 
Single wheel: 30.0
Double wheel: 40.0
Runway edge lights: medium intensity
Runway edge markings: FADED.
RUNWAY 9  RUNWAY 27
Latitude: 39-55.943358N39-55.982148N
Longitude: 083-28.146760W083-27.292362W
Elevation: 1081.5 ft.1051.0 ft.
Traffic pattern: leftleft
Runway heading: 093 magnetic, 087 true273 magnetic, 267 true
Markings: nonprecision, in poor conditionnonprecision, in poor condition
Visual slope indicator: 4-light PAPI on left (3.00 degrees glide path)4-light PAPI on left (3.00 degrees glide path)
Runway end identifier lights: yesyes
Touchdown point: yes, no lightsyes, no lights
Obstructions: 10 ft. crops, 201 ft. from runway, 200 ft. right of centerline
+10 FT CROPS, 0-200 FT DIST, 200 FT R; +8-10 FT CROPS, 65-200 FT DIST, 200 FT L.
5 ft. crops, 201 ft. from runway, 194 ft. left of centerline
+5-7 FT CROPS, 0-200 FT DIST, 194 FT L; +3-12 FT BRUSH/TREES, 60-200 FT DIST, 175 FT R.

Airport Ownership and Management from official FAA records

Ownership: Publicly-owned
Owner: MADISON COUNTY AIRPORT AUTH
1281 US HIGHWAY 40 SW
LONDON, OH 43140-9213
Phone 740-852-5040
Manager: JOHN DUHL
1281 US HIGHWAY 40 SW
LONDON, OH 43140-9213
Phone 740-852-5040
AIRPORT@CO.MADISON.OH.US.

Airport Operational Statistics

Aircraft based on the field: 33
Single engine airplanes: 32
Helicopters: 1
    
Aircraft operations: avg 113/day *
51% local general aviation
44% transient general aviation
5% military
<1% air taxi
* for 12-month period ending 10 September 2020

Additional Remarks

FOR CD CTC COLUMBUS APCH AT 614-338-8537.

Instrument Procedures

NOTE: All procedures below are presented as PDF files. If you need a reader for these files, you should download the free Adobe Reader.

NOT FOR NAVIGATION. Please procure official charts for flight.
FAA instrument procedures published for use from 02 December 2021 at 0901Z to 30 December 2021 at 0900Z.

 
IAPs - Instrument Approach Procedures
RNAV (GPS) RWY 09   download (232KB)
RNAV (GPS) RWY 27   download (224KB)
NOTE: Special Take-Off Minimums/Departure Procedures apply   download (545KB)

Other nearby airports with instrument procedures:

KTZR - Bolton Field Airport (15 nm E)
I74 - Grimes Field Airport (18 nm NW)
KMRT - Union County Airport (18 nm N)
KSGH - Springfield/Beckley Municipal Airport (18 nm W)
KOSU - Ohio State University Airport (20 nm NE)
 
Loc | Ops | Rwys | IFR | FBO | Links
Com | Nav | Svcs | Stats | Notes
Area around KUYF (Madison County Airport)
 
Road maps at: MapQuest Bing Google
 
Aerial photo
WARNING: Photo may not be current or correct
Aerial photo of KUYF (Madison County Airport)
Do you have a better or more recent aerial photo of Madison County Airport that you would like to share? If so, please send us your photo.

 
Sectional chart

 
Airport distance calculator
Flying to Madison County Airport? Find the distance to fly.

From to KUYF

Sunrise and sunset
Times for 07-Dec-2021
 Local
(UTC-5)
 Zulu
(UTC)
Morning civil twilight07:1312:13
Sunrise07:4312:43
Sunset17:0822:08
Evening civil twilight17:3822:38

Current date and time
Zulu (UTC)  08-Dec-2021 00:42:57
Local (UTC-5)  07-Dec-2021 19:42:57
 
METAR
KUYF 080015Z AUTO 00000KT 7SM -SN SCT065 BKN085 OVC110 M05/M09 A3016 RMK AO2
KTZR 
15nm E 
072350Z 00000KT 10SM OVC060 M03/M12 A3019
KSGH 
18nm SW 
072356Z AUTO 13003KT 4SM -SN BR OVC032 M06/M06 A3017 RMK AO2 SLP235 6//// T10611061 11039 21061 58009 FZRANO PNO $
KI74 
18nm NW 
080015Z AUTO 00000KT 10SM SCT060 BKN120 M04/M10 A3016 RMK AO2
KMRT 
18nm N 
080015Z AUTO 00000KT 10SM CLR M04/M11 A3017 RMK AO2 T10401108
KOSU 
20nm NE 
072353Z 24004KT 10SM OVC065 M03/M12 A3018 RMK AO2 SLP231 T10281117 11022 21033 58008
TAF
KLCK 
26nm E 
072031Z 0721/0818 20005KT P6SM VCSH SCT080 SCT090 TEMPO 0800/0804 4SM -SN OVC035 FM080400 11003KT P6SM VCSH SCT040 OVC090 FM080800 14004KT P6SM BKN050 FM081200 25008KT P6SM BKN250
KCMH 
27nm E 
072031Z 0721/0818 23005KT P6SM VCSH BKN100 OVC120 TEMPO 0800/0804 5SM -SN OVC035 FM080400 11003KT P6SM VCSH SCT040 OVC090 FM080800 14004KT P6SM BKN050 FM081200 25009KT P6SM BKN250
KFFO 
27nm W 
071900Z 0719/0901 VRB06KT 9999 FEW065 BKN090 OVC180 QNH3017INS BECMG 0722/0723 VRB06KT 9999 BKN050 BKN075 OVC150 620509 QNH3015INS BECMG 0800/0801 19006KT 8000 -SN SCT010 OVC030 620309 QNH3009INS BECMG 0804/0805 VRB06KT 9999 NSW SCT030 BKN100 OVC180 QNH2999INS BECMG 0814/0815 24013KT 9999 FEW040 SCT100 BKN210 QNH2996INS BECMG 0820/0821 26009KT 9999 FEW100 SCT210 QNH2997INS TX04/0819Z TNM05/0811Z
NOTAMs
Click for the latest NOTAMs
NOTAMs are issued by the DoD/FAA and will open in a separate window not controlled by AirNav.

 

 
 

FBO, Fuel Providers, and Aircraft Ground Support

  
 Business Name 
 
 Contact 
 
 Services / Description 
 
Fuel Prices
 
Comments
  
Madison County Airport 740-852-5040
[web site]
[email]
Airport management, Aviation fuel, Aircraft parking (ramp or tiedown), Hangar leasing / sales, ...

More info about Madison County Airport
EPIC
100LL Jet A
AS $5.05 $3.75 
 Updated 03-Dec-2021
 
   1 read write
AS=Assisted/Self Service
Update Fuel Prices
 

Would you like to see your business listed on this page?

 If your business provides an interesting product or service to pilots, flight crews, aircraft, or users of the Madison County Airport, you should consider listing it here.  To start the listing process, click on the button below
 
Add a business
 

Other Pages about Madison County Airport

co.madison.oh.us/airport
 
Update a link
 
Copyright © AirNav, LLC. All rights reserved. Privacy Policy  Contact